Greer, SC

8:48 AM EDT on August 26, 2016 (GMT -0400)
Greenville-Spartanburg International

Weather History for KGSP - February, 2014

Change the Weather History Date:

Friday, February 14, 2014

  Actual Average Record
Temperature  
Mean Temperature 42 °F 46 °F  
Max Temperature 54 °F 56 °F 76 °F (1962)
Min Temperature 29 °F 35 °F -5 °F (1899)
Degree Days  
Heating Degree Days 23 20  
Month to date heating degree days 301 289  
Since 1 July heating degree days 2352 2199  
Cooling Degree Days 0 0  
Month to date cooling degree days 0 0  
Year to date cooling degree days 0 0  
Moisture  
Dew Point 29 °F    
Average Humidity 62    
Maximum Humidity 85    
Minimum Humidity 39    
Precipitation  
Precipitation 0.00 in 0.15 in 1.37 in (1922)
Month to date precipitation 1.75 1.88  
Year to date precipitation 4.91 5.70  
Snow  
Snow 0.00 in 0.00 in 1.40 in (1986)
Month to date snowfall 6.3 0.5  
Since 1 July snowfall 7.2 3.3  
Snow Depth 2.00 in    
Sea Level Pressure  
Sea Level Pressure 29.77 in    
Wind  
Wind Speed 8 mph (SW)    
Max Wind Speed 20 mph    
Max Gust Speed 24 mph    
Visibility 10 miles    
Events      
T = Trace of Precipitation, MM = Missing Value Source: NWS Daily Summary

Daily Weather History Graph

Daily Weather History Graph

Search for Another Location

Airport or City:

Trip Planner

Search our weather history database for the weather conditions in past years. The results will help you decide how hot, cold, wet, or windy it might be!

Date:

Astronomy

Feb. 14, 2014 Rise Set
Actual Time 7:15 AM EST 6:10 PM EST
Civil Twilight 6:49 AM EST 6:36 PM EST
Nautical Twilight 6:20 AM EST 7:06 PM EST
Astronomical Twilight 5:50 AM EST 7:35 PM EST
Moon 6:11 PM EST (2/14) 6:43 AM EST (2/14)
Length of Visible Light 11h 46m
Length of Day
10h 55m
Full, 100% of the Moon is Illuminated
Feb 14
Full
Feb 14
Full
Feb 22
Last Quarter
Mar 1
New
Mar 8
First Quarter

Hourly Weather History & Observations

Time (EST) Temp. Windchill Dew Point Humidity Pressure Visibility Wind Dir Wind Speed Gust Speed Precip Events Conditions
12:53 AM 30.9 °F 25.2 °F 27.0 °F 85% 29.77 in 10.0 mi SW 5.8 mph - N/A   Clear
1:53 AM 32.0 °F 26.4 °F 26.1 °F 79% 29.77 in 10.0 mi WSW 5.8 mph - N/A   Clear
2:53 AM 32.0 °F 26.4 °F 25.0 °F 75% 29.77 in 10.0 mi WSW 5.8 mph - N/A   Clear
3:53 AM 30.9 °F 26.2 °F 26.1 °F 82% 29.78 in 10.0 mi WSW 4.6 mph - N/A   Clear
4:53 AM 30.9 °F 26.2 °F 26.1 °F 82% 29.79 in 10.0 mi SW 4.6 mph - N/A   Clear
5:53 AM 30.9 °F 24.3 °F 25.0 °F 79% 29.80 in 10.0 mi West 6.9 mph - N/A   Clear
6:53 AM 30.0 °F 24.1 °F 26.1 °F 85% 29.82 in 10.0 mi West 5.8 mph - N/A   Clear
7:53 AM 30.9 °F 24.3 °F 26.1 °F 82% 29.83 in 10.0 mi WSW 6.9 mph - N/A   Clear
8:53 AM 36.0 °F 29.6 °F 28.0 °F 73% 29.84 in 10.0 mi WSW 8.1 mph - N/A   Clear
9:53 AM 43.0 °F 36.8 °F 28.0 °F 56% 29.83 in 10.0 mi SW 11.5 mph - N/A   Clear
10:53 AM 46.9 °F - 27.0 °F 46% 29.81 in 10.0 mi SW 5.8 mph - N/A   Clear
11:53 AM 50.0 °F - 27.0 °F 41% 29.82 in 10.0 mi WSW 11.5 mph - N/A   Clear
12:53 PM 51.1 °F - 28.9 °F 43% 29.81 in 10.0 mi SSW 12.7 mph - N/A   Clear
1:53 PM 53.1 °F - 30.0 °F 41% 29.80 in 10.0 mi WSW 12.7 mph - N/A   Clear
2:53 PM 53.1 °F - 30.0 °F 41% 29.76 in 10.0 mi SSW 12.7 mph - N/A   Clear
3:53 PM 53.1 °F - 30.9 °F 43% 29.75 in 10.0 mi SW 11.5 mph - N/A   Clear
4:53 PM 52.0 °F - 30.0 °F 43% 29.75 in 10.0 mi SW 15.0 mph 23.0 mph N/A   Clear
5:53 PM 48.9 °F - 30.0 °F 48% 29.75 in 10.0 mi SW 13.8 mph - N/A   Clear
6:53 PM 48.0 °F - 30.9 °F 52% 29.74 in 10.0 mi SSW 10.4 mph - N/A   Clear
7:53 PM 46.9 °F - 32.0 °F 56% 29.74 in 10.0 mi SSW 10.4 mph - N/A   Clear
8:53 PM 44.1 °F 40.8 °F 33.1 °F 65% 29.73 in 10.0 mi South 5.8 mph - N/A   Partly Cloudy
9:53 PM 45.0 °F 41.8 °F 33.1 °F 63% 29.72 in 10.0 mi SSW 5.8 mph - N/A   Mostly Cloudy
10:53 PM 42.1 °F - 33.1 °F 70% 29.68 in 10.0 mi Calm Calm - N/A   Overcast
11:53 PM 44.1 °F 39.0 °F 33.1 °F 65% 29.66 in 10.0 mi SSW 9.2 mph - N/A   Overcast